Flag for Philippines Weather past 2 weeks in Olongapo, Philippines

Now
90 °F

Passing clouds.


Feels Like: 100 °F
Forecast: 76 / 90 °F
Wind: 9 mph from Southwest

Location: Subic Bay Weather Station

Current Time: Aug 3, 2015 at 2:50:36 PM

Latest Report: Aug 3, 2015 at 2:00 PM


Visibility: N/A

Pressure: 29.74 "Hg

Humidity: 63%

Dew point: 75 °F

Location of OlongapoLocation

Historic Weather in Olongapo — Graph

°F

Olongapo temperature yesterday

Maximum temperature yesterday: 88 °F (at 11:00 AM)
Minimum temperature yesterday: 77 °F (at 4:00 AM)
Average temperature yesterday: 81 °F

Past Weeks' High & Low Weather Summary

 TemperatureHumidityPressure
High91 °F (Jul 28, 2:00 PM)94% (Jul 22, 9:00 PM)29.98 "Hg (Jul 22, 9:00 PM)
Low72 °F (Jul 22, 9:00 PM)52% (Jul 30, 12:00 PM)29.71 "Hg (Jul 31, 4:00 PM)
Average82 °F78%29.84 "Hg
* Reported Jul 19 2:00 PM — Aug 3 2:00 PM, Olongapo, Weather by CustomWeather, © 2015

Note: Actual official high and low records may vary slightly from our data, if they occured in-between our weather recording intervals... More about our weather records

Advertising

Olongapo weather history for previous 24 hours

 ConditionsComfort  
Time TempWeatherWind HumidityBarometerVisibility
2:00 PM
Mon, Aug 3
90 °FPassing clouds.9 mph63%29.74 "HgN/A
1:00 PM90 °FScattered clouds.9 mph63%29.77 "HgN/A
12:00 PM88 °FScattered clouds.8 mph66%29.80 "HgN/A
11:00 AM90 °FScattered clouds.9 mph63%29.80 "HgN/A
10:00 AM88 °FScattered clouds.5 mph62%29.80 "HgN/A
9:00 AM84 °FScattered clouds.2 mph70%29.83 "HgN/A
8:00 AM82 °FScattered clouds.No wind74%29.80 "HgN/A
7:00 AM77 °FScattered clouds.2 mph89%29.80 "HgN/A
6:00 AM75 °FBroken clouds.No wind94%29.80 "HgN/A
5:00 AM75 °FPassing clouds.No wind94%29.77 "HgN/A
4:00 AM75 °FPassing clouds.3 mph89%29.77 "HgN/A
3:00 AM75 °FPassing clouds.No wind94%29.77 "HgN/A
2:00 AM75 °FPartly cloudy.No wind94%29.80 "HgN/A
1:00 AM77 °FPartly cloudy.1 mph89%29.80 "HgN/A
12:00 AM77 °FPassing clouds.No wind89%29.83 "HgN/A
11:00 PM
Sun, Aug 2
77 °FPassing clouds.No wind89%29.83 "HgN/A
10:00 PM77 °FPassing clouds.No wind94%29.83 "HgN/A
9:00 PM79 °FPassing clouds.5 mph89%29.80 "HgN/A
8:00 PM81 °FPartly cloudy.No wind84%29.80 "HgN/A
7:00 PM82 °FThunderstorms. Passing clouds.2 mph79%29.80 "HgN/A
6:00 PM82 °FBroken clouds.5 mph79%29.77 "HgN/A
5:00 PM82 °FBroken clouds.5 mph79%29.74 "HgN/A
4:00 PM82 °FPartly sunny.6 mph79%29.74 "HgN/A
3:00 PM81 °FPartly sunny.3 mph79%29.77 "HgN/A
2:00 PM81 °FMostly cloudy.5 mph84%29.80 "HgN/A
Weather by CustomWeather, © 2015

See weather overviewHow to use our weather pages